Tracking 17142 objects as of 28-May-2015
HD Live streaming from Space Station

INTELSAT 605

Track INTELSAT 605 now!
INTELSAT 605 is classified as:


NORAD ID: 21653
Int'l Code: 1991-055A
Perigee: 36,048.0 km
Apogee: 36,072.6 km
Inclination: 9.0 °
Period: 1,449.7 minutes
Semi major axis: 42431 km
RCS: 0.754 m2 (medium)
Launch date: August 14, 1991
Source: International Telecommunications Satellite Organization (ITSO)

Inclined orbit; 64 C-band, 24 Ku-band; Broadcasting, business services, direct-to-home TV broadcasting, telecommunications, VSAT networks; Atlantic Ocean region.
Your satellite tracking list
Your tracking list is empty





NASA's NSSDC Master Catalog

Two Line Element Set (TLE):
1 21653U 91055A   15148.41356272 -.00000094  00000-0  00000+0 0  9999
2 21653 009.0318 048.0188 0002900 116.6339 055.2081 00.99328476 86866

Source of the keplerian elements: AFSPC

N2YO: 329